[[{"header":{"parameterUnit":"m.s-1","parameterCategory":1,"la1":30.2992,"la2":30.254,"lo1":-89.0895,"lo2":-89.0443,"dy":0.0025,"dx":0.0025,"nx":19,"ny":19,"refTime":"2026-05-11T09:00:00:Z","depth":0,"parameterNumber":2,"parameterNumberName":"U-component_of_WINDS"},"data":[0,0,0,-4.9555,-4.9562,-4.9875,-4.9877,-5.0285,-5.0288,0,0,0,0,0,0,0,0,0,0,0,-4.9465,-4.9468,-4.9554,-4.9562,-4.9875,-4.9877,-5.0284,-5.0288,0,0,0,0,0,0,0,0,0,0,0,-4.9464,-4.9467,-4.9471,-4.9563,-4.9875,-4.9877,-5.0283,-5.0044,0,0,0,0,0,0,0,0,0,0,-4.9739,-4.9659,-4.9467,-4.9471,-4.9565,-4.9875,-4.9877,-5.0033,-5.0059,-5.0145,0,-5.0222,0,-5.0262,-5.0316,-5.0317,0,0,0,-4.956,-4.9637,-4.9718,-4.9472,-4.9568,-4.9874,-4.9733,-5.0047,-5.0077,-5.018,-5.0228,-5.0243,-5.0268,-5.0319,-5.0321,-5.082,-5.0822,0,0,-4.9543,-4.9524,-4.9698,-4.9738,-4.9689,-4.9723,-4.9743,-5.0065,-5.0116,-5.0229,-5.0252,-5.0275,-5.0321,-5.0325,-5.0818,-5.0821,0,0,0,-4.9495,-4.9512,-4.9585,-4.9721,-4.9777,-4.9733,-4.9755,-5.0102,-5.0127,-5.0256,-5.028,-5.0324,-5.0329,-5.0815,-5.0819,-5.0917,0,0,0,-4.9484,-4.9483,-4.9578,-4.9569,-4.9771,-4.9943,-4.9784,-5.0105,-5.0142,-5.0278,-5.0324,-5.0333,-5.0813,-5.0817,-5.0908,-5.0965,0,0,0,-4.9444,-4.9479,-4.9525,-4.9567,-4.9701,-4.9938,-4.9982,-5.0113,-5.0156,-5.0318,-5.0334,-5.0811,-5.0816,-5.0901,-5.0953,-5.1088,0,0,0,-4.9395,-4.961,-4.9526,-4.9775,-4.9699,-4.9997,-4.998,-5.0205,-5.0355,-5.0326,-5.0813,-5.0819,-5.0898,-5.0945,-5.108,-5.1195,-5.1242,0,0,-4.9655,-4.9641,-4.9789,-4.9723,-5.003,-4.9951,-5.0275,-5.0432,-5.0466,-5.0701,-5.0713,-5.0911,-5.0952,-5.1086,-5.152,-5.1557,0,0,0,-4.9864,-4.997,-5.0056,-5.0197,-5.0322,-5.0433,-5.0542,-5.0601,-5.08,-5.0582,-5.0999,-5.1024,-5.1104,-5.1159,-5.1191,-5.1259,-5.0845,-5.0844,-5.0844,-5.0201,-5.0233,-5.0479,-5.0548,-5.0686,-5.0797,-5.0911,-5.1009,-5.1002,-5.11,-5.1168,-5.1428,-5.1492,-5.1516,-5.1586,-5.1235,-5.1236,-5.1236,-5.1237,-5.0581,-5.0733,-5.0719,-5.0951,-5.0984,-5.1181,-5.1297,-5.1286,-5.1473,-5.1379,-5.1451,-5.134,-5.1556,-5.1619,-5.1244,-5.1243,-5.1242,-5.1241,-5.1241,-5.0801,-5.0879,-5.0946,-5.1153,-5.131,-5.1375,-5.1555,-5.158,-5.1605,-5.1676,-5.1749,-5.1747,-5.1745,-5.171,-5.1711,-5.1712,-5.1713,-5.1713,-5.1714,-5.1,-5.1073,-5.1221,-5.1371,-5.1465,-5.1591,-5.1706,-5.18,-5.1909,-5.1913,-5.1914,-5.1895,-5.1573,-5.1488,-5.1728,-5.1725,-5.1723,-5.1722,-5.1721,-5.1364,-5.1286,-5.1514,-5.1608,-5.1786,-5.1938,-5.197,-5.2157,-5.2239,-5.2327,-5.2295,-5.2054,-5.204,-5.2016,-5.1945,-5.2289,-5.2289,-5.2289,-5.2289,-5.1546,-5.1543,-5.178,-5.1928,-5.2076,-5.2127,-5.2384,-5.2476,-5.256,-5.2612,-5.2568,-5.2479,-5.2452,-5.2455,-5.242,-5.2355,-5.2795,-5.2796,-5.2796,-5.177,-5.1782,-5.1994,-5.2073,-5.2215,-5.2336,-5.2578,-5.2749,-5.2828,-5.2817,-5.2653,-5.2631,-5.2488,-5.2441,-5.242,-5.2366,-5.2247,0,0]},{"header":{"parameterUnit":"m.s-1","parameterCategory":1,"la1":30.2992,"la2":30.254,"lo1":-89.0895,"lo2":-89.0443,"dy":0.0025,"dx":0.0025,"nx":19,"ny":19,"refTime":"2026-05-11T09:00:00:Z","depth":0,"parameterNumber":3,"parameterNumberName":"V-component_of_WINDS"},"data":[0,0,0,0.6842,0.6843,0.6888,0.6888,0.6954,0.6955,0,0,0,0,0,0,0,0,0,0,0,0.6836,0.6836,0.6842,0.6843,0.6888,0.6888,0.6954,0.6955,0,0,0,0,0,0,0,0,0,0,0,0.6835,0.6836,0.6837,0.6844,0.6888,0.6888,0.6954,0.6917,0,0,0,0,0,0,0,0,0,0,0.6872,0.6872,0.6836,0.6837,0.6844,0.6888,0.6888,0.6915,0.6919,0.6938,0,0.6958,0,0.6957,0.696,0.696,0,0,0,0.6838,0.6869,0.6875,0.6837,0.6844,0.6888,0.6866,0.6917,0.6922,0.6944,0.6959,0.6961,0.6959,0.696,0.6961,0.7091,0.7092,0,0,0.6836,0.6847,0.6872,0.6878,0.6873,0.6865,0.6868,0.692,0.6936,0.6959,0.6962,0.696,0.6961,0.6961,0.709,0.7091,0,0,0,0.6832,0.6845,0.685,0.6876,0.6883,0.6866,0.687,0.6934,0.6934,0.6963,0.696,0.6961,0.6962,0.7089,0.7091,0.7144,0,0,0,0.6831,0.6843,0.6849,0.6856,0.6883,0.6909,0.6882,0.6931,0.6936,0.696,0.6961,0.6963,0.7088,0.709,0.7141,0.7168,0,0,0,0.683,0.6843,0.6852,0.6857,0.6876,0.6908,0.6912,0.6932,0.6935,0.696,0.6963,0.7088,0.709,0.7137,0.7162,0.7206,0,0,0,0.6833,0.6897,0.6853,0.6923,0.6876,0.6941,0.6911,0.6959,0.6986,0.6962,0.7088,0.709,0.7136,0.7159,0.7203,0.7246,0.7265,0,0,0.692,0.6908,0.6949,0.691,0.6986,0.6933,0.7017,0.7031,0.7023,0.7069,0.7072,0.7142,0.7162,0.7206,0.7363,0.7378,0,0,0,0.698,0.701,0.7028,0.7055,0.7069,0.7083,0.7083,0.7089,0.7127,0.7049,0.7168,0.718,0.7205,0.7225,0.7238,0.726,0.71,0.71,0.7099,0.7119,0.7106,0.7174,0.7167,0.7194,0.7195,0.7215,0.7223,0.7201,0.7229,0.7243,0.7341,0.7364,0.7374,0.7397,0.7264,0.7264,0.7264,0.7264,0.7246,0.7287,0.7258,0.7313,0.7299,0.7344,0.7348,0.7331,0.7371,0.7329,0.735,0.7306,0.7391,0.741,0.7268,0.7267,0.7267,0.7267,0.7266,0.7337,0.7355,0.7361,0.74,0.7432,0.7422,0.7463,0.7448,0.7434,0.7455,0.7469,0.7468,0.7467,0.7463,0.7463,0.7464,0.7464,0.7464,0.7464,0.7429,0.7434,0.7471,0.7492,0.7509,0.7528,0.753,0.7546,0.7559,0.7545,0.7545,0.7521,0.7401,0.7372,0.747,0.7469,0.7468,0.7467,0.7467,0.7565,0.7532,0.7589,0.7606,0.763,0.7663,0.7644,0.7677,0.7687,0.7708,0.768,0.7593,0.7579,0.7569,0.7545,0.7682,0.7682,0.7682,0.7682,0.7643,0.7635,0.769,0.7719,0.7744,0.7733,0.7798,0.78,0.7797,0.7803,0.7781,0.7747,0.7737,0.773,0.7716,0.7693,0.7864,0.7865,0.7865,0.7727,0.772,0.7779,0.7777,0.7795,0.781,0.7871,0.7904,0.7894,0.7872,0.7808,0.78,0.7745,0.7728,0.7706,0.7685,0.7643,0,0]}]]